{"data":{"norad_id":58834,"intl_designator":"2024-017J","name":"STARLINK-31171","alt_names":[],"object_type":"PAYLOAD","status":"ACTIVE","operator":null,"country":"US","launch_date":"2024-01-24","launch_site_code":"AFWTR","launch_vehicle":null,"mission":null,"orbit_class":"UNKNOWN","rcs_meters":null,"size_class":null,"mass_kg":null,"dimensions":null,"purposes":["comms"],"wikipedia_slug":null,"has_3d_model":false,"image_url":null,"decayed_at":null,"tle_current":{"epoch":"2026-09-20T13:43:16.542336Z","epoch_age_seconds":146399,"freshness":"FRESH","line1":"1 58834U 24017J   26263.57171924  .00001329  00000+0  50473-4 0  9994","line2":"2 58834  53.1626 353.1296 0001665  71.2928 288.8255 15.34397516150254","mean_motion":15.34397516,"eccentricity":0.0001665,"inclination_deg":53.1626,"raan_deg":353.1296,"arg_perigee_deg":71.2928,"mean_anomaly_deg":288.8255,"bstar":5.0473e-5,"rev_number":15025,"period_min":93.84791000926,"perigee_km":461.57162205928,"apogee_km":463.84962431781,"semimajor_km":6840.8476231885,"source":"CELESTRAK","updated_at":"2026-09-21T09:00:33.984125Z"}}}